This demonstration page uses our WeatherBlox Daily Observations layout. Learn more.

38.88101, -77.10428

Hourly Observations for October 9, 2016

Temp ( °F °C ) Dew Point ( °F °C ) Humidity (%) Winds ( mph kmh ) Pressure ( in mb ) Visibility ( mi km ) Precip ( " mm )
12:52 am 00:52 Cloudy with Light Rain 66 18.9 63 17.2 90 90 N 15 24 29.97 1015 10 16.09344 0.001 0.001
1:23 am 01:23 Cloudy with Light Rain 66 18.9 63 17.2 90 90 N 14 22 29.94 1014 10 16.09344 0.001 0.001
1:52 am 01:52 Cloudy with Light Rain 65 18.3 61 16.1 87 87 N 22 35 29.94 1014 10 16.09344 0.001 0.001
2:35 am 02:35 Cloudy with Light Rain 64 17.8 59 15 84 84 N 16 26 29.94 1014 10 16.09344 0.001 0.001
2:52 am 02:52 Cloudy with Light Rain 63 17.2 58 14.4 84 84 N 18 30 29.97 1015 10 16.09344 0.01 0.254
3:52 am 03:52 Cloudy with Light Rain 60 15.6 54 12.2 80 80 N 20 31 29.97 1015 10 16.09344 0.001 0.001
4:52 am 04:52 Cloudy with Rain 58 14.4 53 11.7 84 84 N 20 31 29.97 1015 10 16.09344 0.03 0.762
5:52 am 05:52 Cloudy with Light Rain 58 14.4 51 10.6 78 78 N 18 30 29.97 1015 10 16.09344 0.04 1.016
6:52 am 06:52 Cloudy with Light Rain 57 13.9 49 9.4 74 74 N 16 26 29.97 1015 10 16.09344 0.01 0.254
7:52 am 07:52 Cloudy 57 13.9 46 7.8 67 67 N 25 41 30 1016 10 16.09344 0.001 0.001
8:52 am 08:52 Mostly Cloudy 57 13.9 45 7.2 64 64 NNW 23 37 30.03 1017 10 16.09344 0 0
9:52 am 09:52 Mostly Cloudy 57 13.9 45 7.2 64 64 N 21 33 30.03 1017 10 16.09344 0 0
10:52 am 10:52 Mostly Cloudy 58 14.4 44 6.7 60 60 N 29 46 30.03 1017 10 16.09344 0 0
11:52 am 11:52 Partly Cloudy 62 16.7 44 6.7 52 52 NNW 32 52 30.03 1017 10 16.09344 0 0
12:52 pm 12:52 Partly Cloudy 65 18.3 45 7.2 49 49 N 25 41 30.03 1017 10 16.09344 0 0
1:52 pm 13:52 Mostly Sunny 67 19.4 45 7.2 45 45 NNW 23 37 30.03 1017 10 16.09344 0 0
2:52 pm 14:52 Mostly Sunny 68 20 43 6.1 40 40 N 22 35 30.03 1017 10 16.09344 0 0
3:52 pm 15:52 Mostly Sunny 69 20.6 43 6.1 39 39 N 29 46 30.03 1017 10 16.09344 0 0
4:52 pm 16:52 Mostly Sunny 67 19.4 44 6.7 44 44 NNW 24 39 30.06 1018 10 16.09344 0 0
5:52 pm 17:52 Mostly Sunny 65 18.3 42 5.6 43 43 NNW 26 43 30.09 1019 10 16.09344 0 0
6:52 pm 18:52 Mostly Clear 63 17.2 42 5.6 47 47 NNW 18 30 30.12 1020 10 16.09344 0 0
7:52 pm 19:52 Clear 61 16.1 42 5.6 50 50 N 15 24 30.12 1020 10 16.09344 0 0
8:52 pm 20:52 Clear 59 15 42 5.6 54 54 N 13 20 30.15 1021 10 16.09344 0 0
9:52 pm 21:52 Partly Cloudy 58 14.4 42 5.6 56 56 N 8 13 30.18 1022 10 16.09344 0 0
10:52 pm 22:52 Mostly Clear 57 13.9 42 5.6 58 58 NNW 9 15 30.18 1022 10 16.09344 0 0
11:52 pm 23:52 Partly Cloudy 57 13.9 43 6.1 60 60 NW 9 15 30.21 1023 10 16.09344 0 0

Powered by AerisWeather